Location: Newark
(35.6799°N, 139.7636°E)
Time: 18:24:16
(UTC+00:00)

Transit 2A - Pass Details

Date: 10 December 2019
Orbit: 601 x 957 km, 66.7° (Epoch: 18 January)

Event Time Altitude Azimuth Distance (km) Brightness Sun altitude
Rises 21:49:38 0° 226° (SW) 3,141 9.0 0.9°
Reaches altitude 10° 21:52:15 10° 234° (SW) 2,164 8.1 1.4°
Maximum altitude 21:56:43 36° 301° (WNW) 1,048 6.3 2.1°
Drops below altitude 10° 22:00:54 10° 9° (N) 2,014 8.0 2.9°
Sets 22:03:16 0° 18° (NNE) 2,894 8.9 3.3°
